Home   Weather   Firenze   Past weeks
Flag for Italy

Past Weather in Firenze, Italy — Yesterday and Last 2 Weeks

Now
59 °F

Broken clouds.


Feels Like: 60 °F
Forecast: 71 / 52 °F
Wind: 3 mph from East

Location: Florence / Peretola

Current Time: May 21, 2019 at 10:57:49 am

Latest Report: May 21, 2019 at 10:20 am


Visibility: N/A

Pressure: 29.86 "Hg

Humidity: 94%

Dew Point: 57 °F

Location of FirenzeLocation

Past Weather in Firenze — Graph

°F

Firenze Temperature Yesterday

Maximum temperature yesterday: 68 °F (at 4:20 pm)
Minimum temperature yesterday: 55 °F (at 1:50 am)
Average temperature yesterday: 59 °F

High & Low Weather Summary for the Past Weeks

 TemperatureHumidityPressure
High73 °F (May 17, 2:20 pm)100% (May 7, 5:50 am)30.15 "Hg (May 7, 5:50 am)
Low37 °F (May 7, 4:50 am)31% (May 16, 6:20 pm)29.62 "Hg (May 18, 5:20 am)
Average58 °F70%29.87 "Hg
* Reported May 6 9:20 am — May 21 9:20 am, Firenze. Weather by CustomWeather, © 2019

Note: Actual official high and low records may vary slightly from our data, if they occured in-between our weather recording intervals... More about our weather records

Advertising

Firenze Weather History for the Previous 24 Hours

Scroll right to see more
 ConditionsComfort  
Time TempWeatherWind HumidityBarometerVisibility
9:20 am
Tue, May 21
59 °FBroken clouds.1 mph94%29.86 "HgN/A
8:50 am57 °FBroken clouds.1 mph94%29.86 "HgN/A
8:20 am57 °FDrizzle. Broken clouds.3 mph94%29.86 "Hg5 mi
7:50 am57 °FDrizzle. Fog.3 mph94%29.83 "Hg3 mi
7:20 am57 °FDrizzle. Broken clouds.3 mph94%29.83 "HgN/A
6:50 am55 °FDrizzle. Broken clouds.3 mph100%29.83 "Hg5 mi
6:20 am55 °FDrizzle. Broken clouds.5 mph100%29.83 "Hg5 mi
5:50 am55 °FDrizzle. Broken clouds.5 mph100%29.83 "Hg5 mi
5:20 am55 °FPassing clouds.3 mph100%29.83 "HgN/A
4:50 am55 °FLight rain. Passing clouds.5 mph94%29.83 "HgN/A
4:20 am55 °FLight rain. Passing clouds.3 mph94%29.83 "HgN/A
3:50 am55 °FRain. Passing clouds.3 mph94%29.83 "Hg5 mi
3:20 am55 °FRain. Passing clouds.1 mph94%29.83 "Hg4 mi
2:50 am57 °FLight rain. Passing clouds.2 mph88%29.83 "HgN/A
2:20 am57 °FPassing clouds.5 mph88%29.83 "HgN/A
1:50 am57 °FPassing clouds.2 mph88%29.83 "HgN/A
1:20 am57 °FPassing clouds.2 mph88%29.83 "HgN/A
12:50 am57 °FPassing clouds.5 mph88%29.83 "HgN/A
12:20 am57 °FPassing clouds.7 mph88%29.83 "HgN/A
11:50 pm
Mon, May 20
57 °FPassing clouds.3 mph94%29.83 "HgN/A
11:20 pm57 °FPassing clouds.3 mph94%29.80 "HgN/A
10:50 pm57 °FLight rain. Passing clouds.3 mph94%29.80 "HgN/A
10:20 pm57 °FPassing clouds.2 mph94%29.80 "HgN/A
9:50 pm57 °FPassing clouds.5 mph94%29.80 "HgN/A
9:20 pm57 °FPassing clouds.3 mph94%29.80 "HgN/A
8:50 pm57 °FPassing clouds.3 mph94%29.80 "HgN/A
8:20 pm57 °FBroken clouds.6 mph94%29.80 "HgN/A
7:50 pm57 °FLight rain. Partly sunny.8 mph94%29.80 "Hg5 mi
7:20 pm59 °FLight rain. Partly sunny.9 mph82%29.77 "Hg5 mi
6:50 pm59 °FPartly sunny.7 mph88%29.77 "HgN/A
6:20 pm59 °FPartly sunny.8 mph88%29.77 "HgN/A
5:50 pm59 °FLight rain. Partly sunny.9 mph77%29.77 "HgN/A
5:20 pm63 °FPartly sunny.10 mph64%29.77 "HgN/A
4:50 pm63 °FPartly sunny.14 mph64%29.77 "HgN/A
4:20 pm68 °FScattered clouds.2 mph60%29.74 "HgN/A
3:50 pm66 °FScattered clouds.5 mph68%29.74 "HgN/A
3:20 pm63 °FScattered clouds.6 mph77%29.74 "HgN/A
2:50 pm66 °FScattered clouds.3 mph68%29.74 "HgN/A
2:20 pm64 °FScattered clouds.2 mph68%29.74 "HgN/A
1:50 pm63 °FBroken clouds.3 mph73%29.77 "HgN/A
1:20 pm59 °FLight rain. Partly sunny.3 mph82%29.77 "HgN/A
12:50 pm59 °FRain. Broken clouds.7 mph82%29.77 "HgN/A
12:20 pm63 °FLight rain. Partly sunny.8 mph73%29.74 "HgN/A
11:50 am63 °FBroken clouds.5 mph73%29.74 "HgN/A
11:20 am61 °FLight rain. Broken clouds.5 mph77%29.74 "HgN/A
10:50 am61 °FPartly sunny.7 mph77%29.74 "HgN/A
10:20 am61 °FBroken clouds.5 mph77%29.74 "HgN/A
Weather by CustomWeather, © 2019

See weather overview